Location: Bonac
(42.8765°N, 0.9753°E)
Time: 22:22:10
(UTC+00:00)

CARTOSAT-1 - Visible Passes

Search period start: 18 April 2026 00:00
Search period end: 28 April 2026 00:00
Orbit: 595 x 596 km, 97.5° (Epoch: 18 April)

Date Brightness Start Highest point End Pass type
(mag) Time Alt. Az. Time Alt. Az. Time Alt. Az.
18 Apr 6.4 19:47:00 10° SW 19:49:28 15° W 19:51:56 10° NW visible
19 Apr 6.6 19:57:35 10° WSW 19:59:09 12° W 20:00:43 10° WNW visible
25 Apr 5.6 19:17:02 10° SSW 19:20:43 29° W 19:24:25 10° NW visible
26 Apr 6.0 19:26:58 10° SSW 19:30:21 23° W 19:33:45 10° NW visible
27 Apr 6.3 19:37:03 10° SW 19:40:00 19° W 19:42:58 10° NW visible
